Location: Cheching
(60.0667°N, 164.2167°W)
Time: 10:48:15
(UTC+00:00)

UNISAT 6 - Pass Details

Date: 25 January 2021
Orbit: 607 x 687 km, 97.7° (Epoch: 24 February)

Event Time Altitude Azimuth Distance (km) Brightness Sun altitude
Rises 18:34:32 0° 199° (SSW) 2,879 ? -6.2°
Reaches altitude 10° 18:37:00 10° 213° (SSW) 1,988 ? -5.9°
Maximum altitude 18:40:36 25° 270° (W) 1,273 ? -5.5°
Drops below altitude 10° 18:44:17 10° 326° (NW) 2,036 ? -5.1°
Sets 18:46:52 0° 340° (NNW) 2,965 ? -4.8°
